EW7350 Weather Reports


time (UTC)temp
C
wind
direction
speed
KPH
gust
KPH
rain 1hr
cm
rain 24hr
cm
rain mn
cm
humidity
%
barometer
mb
20260505010103 18 250 0.0 0.0 0.00 0.00 0.00 73 1000.2
20260505004540 19 250 0.0 0.0 0.00 0.00 0.00 71 1000.3
20260505003044 20 250 0.0 1.6 0.00 0.00 0.00 69 1000.4
20260505001539 20 250 0.0 6.4 0.00 0.00 0.00 67 1000.3
20260505000045 20 227 1.6 9.7 0.00 0.00 0.00 65 1000.3
20260504234537 21 234 0.0 9.7 0.00 0.00 0.00 63 1000.3
20260504233036 21 248 4.8 14.5 0.00 0.00 0.00 62 1000.2
20260504231538 21 244 3.2 12.9 0.00 0.00 0.00 60 1000.4
20260504230041 21 254 6.4 20.9 0.00 0.00 0.00 57 1000.7
20260504224533 22 240 4.8 22.5 0.00 0.00 0.00 55 1000.7
20260504223031 22 240 11.3 20.9 0.00 0.00 0.00 52 1000.8
20260504221542 22 360 8.0 19.3 0.00 0.00 0.00 51 1000.9
20260504220030 23 223 12.9 24.1 0.00 0.00 0.00 50 1000.8
20260504214526 23 240 11.3 24.1 0.00 0.00 0.00 50 1000.6
20260504213030 23 360 11.3 43.5 0.00 0.00 0.00 50 1000.7
20260504211523 24 360 8.0 19.3 0.00 0.00 0.00 50 1000.5
20260504210023 24 360 12.9 20.9 0.00 0.00 0.00 49 1000.6
20260504204522 24 360 11.3 17.7 0.00 0.00 0.00 52 1000.7
20260504203016 24 241 6.4 17.7 0.00 0.00 0.00 53 1000.7
20260504201515 23 232 9.7 16.1 0.00 0.00 0.00 55 1001.0
20260504200012 24 229 4.8 12.9 0.00 0.00 0.00 56 1001.1
20260504194509 23 211 8.0 16.1 0.00 0.00 0.00 55 1001.4
20260504193007 23 201 3.2 11.3 0.00 0.00 0.00 55 1001.6
20260504191504 22 248 8.0 16.1 0.00 0.00 0.00 57 1001.9
20260504190002 23 230 4.8 9.7 0.00 0.00 0.00 57 1001.9
20260504184559 24 360 4.8 16.1 0.00 0.00 0.00 55 1001.9
20260504183056 24 240 4.8 14.5 0.00 0.00 0.00 57 1002.2
20260504181554 23 232 4.8 14.5 0.00 0.00 0.00 58 1002.3
20260504180051 23 229 1.6 11.3 0.00 0.00 0.00 57 1002.6
20260504174547 23 245 1.6 9.7 0.00 0.00 0.00 59 1002.7
20260504173043 22 224 3.2 11.3 0.00 0.00 0.00 60 1002.9
20260504171539 22 224 4.8 9.7 0.00 0.00 0.00 58 1003.4
20260504081512 7 207 0.0 0.0 0.00 0.00 0.00 85 1006.3
20260504044546 7 207 0.0 4.8 0.00 0.00 0.00 85 1008.8
20260504043048 7 207 0.0 0.0 0.00 0.00 0.00 85 1008.8
20260504041543 7 207 0.0 1.6 0.00 0.00 0.00 85 1008.8
20260504040100 7 207 0.0 0.0 0.00 0.00 0.00 85 1009.0
20260504034541 7 207 0.0 0.0 0.00 0.00 0.00 85 1009.1
20260504033039 7 207 0.0 3.2 0.00 0.00 0.00 85 1009.2
20260504031538 7 208 0.0 3.2 0.00 0.00 0.00 85 1009.3
20260504030038 8 210 0.0 3.2 0.00 0.00 0.00 85 1009.4
20260504024536 8 210 0.0 1.6 0.00 0.00 0.00 85 1009.6
20260504023035 8 210 0.0 0.0 0.00 0.00 0.00 84 1009.7
20260504021535 8 207 0.0 3.2 0.00 0.00 0.00 84 1009.7
20260504020034 8 206 0.0 1.6 0.00 0.00 0.00 84 1009.6
20260504014537 8 199 0.0 6.4 0.00 0.00 0.00 84 1009.6
20260504013034 8 202 0.0 4.8 0.00 0.00 0.00 83 1009.7
20260504011532 8 221 0.0 0.0 0.00 0.00 0.00 82 1009.7